GFSMW_sfc_wetblb_057.txt.gz
Wetbulb
65.22 66.56 65.90 66.75 64.90 64.74 63.55 62.68 66.63 66.77 68.59 66.78 65.14 64.28 64.92 66.12 66.97 68.75 69.66 69.55 69.06 69.67 68.57 67.89 68.05 68.84 68.73 68.97 69.56 68.55 68.03 67.17 67.96 66.86 66.45 66.70 67.97 68.07 68.41 69.40 69.40 70.10 70.41
64.11 64.92 65.11 65.83 64.39 64.64 66.39 65.23 67.37 65.58 67.49 69.04 66.45 64.94 64.80 65.50 66.02 68.12 67.73 68.56 68.65 68.85 69.38 68.27 68.18 68.95 68.73 68.95 69.17 69.31 67.06 67.60 67.89 65.32 63.52 61.15 62.79 65.48 67.71 67.39 68.73 68.48 69.85
63.86 64.37 65.05 65.04 65.81 66.55 66.17 66.23 66.48 65.01 66.28 69.18 65.35 64.87 64.83 64.59 64.59 65.45 67.67 68.34 69.52 70.08 69.74 69.92 69.09 69.02 68.72 68.23 68.69 68.61 67.94 66.09 66.61 67.04 64.23 60.48 59.59 61.26 66.94 67.71 68.05 68.45 68.45
65.12 64.87 65.19 64.10 65.52 66.55 67.62 65.72 66.41 67.24 70.03 67.69 65.39 63.43 62.59 61.85 63.56 66.16 67.64 69.08 70.90 70.42 70.44 69.85 69.70 69.37 69.98 69.27 68.84 69.15 67.69 66.63 65.44 66.00 67.62 65.25 63.89 59.81 59.08 66.29 66.62 67.80 67.46
65.56 65.31 65.61 65.40 67.55 68.62 68.14 67.45 68.61 70.28 68.84 66.82 66.24 65.50 64.85 65.73 66.56 66.90 66.46 66.10 68.03 69.71 70.20 69.16 68.78 68.32 68.52 68.25 68.41 68.61 67.85 67.46 66.49 65.75 65.18 64.48 64.59 63.72 62.33 61.68 63.53 66.08 66.80
66.21 66.50 66.72 66.97 68.62 68.96 68.95 69.91 66.59 70.12 69.69 66.93 67.08 68.68 67.60 68.30 66.24 65.55 64.74 65.95 66.54 67.28 68.45 69.47 68.12 68.61 67.76 67.98 67.82 67.69 67.94 67.80 67.03 66.29 65.99 64.78 63.22 62.34 61.63 62.87 63.13 63.05 64.49
67.26 66.50 66.55 66.96 67.82 68.32 70.33 70.42 69.19 68.57 69.18 68.65 68.61 69.13 68.57 68.25 65.65 64.27 64.66 64.96 65.23 65.73 66.37 67.44 67.58 67.96 67.98 67.85 67.51 66.75 66.68 66.50 65.60 65.17 65.49 66.40 65.32 64.76 63.15 62.47 63.45 62.65 64.29
68.72 68.14 68.05 67.96 67.94 68.86 69.45 70.55 69.71 68.00 68.66 68.79 68.59 69.22 68.27 67.46 65.80 65.18 64.69 65.12 64.94 64.95 65.54 66.48 66.97 67.89 67.69 67.02 66.99 66.42 66.65 65.86 65.48 65.17 65.12 65.63 66.01 66.13 64.71 63.60 63.67 62.16 62.61
69.21 68.73 68.17 67.82 67.47 68.83 68.73 69.92 69.35 68.61 68.48 68.47 68.07 68.88 68.14 66.97 65.13 64.84 65.15 64.96 65.08 66.01 65.77 66.15 66.55 67.04 66.44 66.21 65.60 64.69 64.36 64.62 64.55 64.76 65.09 65.43 65.67 66.58 65.90 64.87 65.28 62.83 60.11
67.92 66.94 66.54 67.67 67.46 67.37 68.76 69.05 69.68 68.95 67.73 67.71 67.26 68.81 67.67 66.55 65.67 65.51 65.17 65.09 64.75 65.14 65.30 65.12 65.77 65.68 64.67 64.38 64.15 63.41 64.00 63.73 63.38 63.56 64.44 64.60 64.84 65.65 65.85 65.36 64.33 64.90 62.68
66.57 67.58 67.10 66.35 67.43 66.21 68.82 69.59 69.21 68.30 67.06 66.97 67.24 68.00 66.61 66.84 65.92 65.33 64.98 64.63 63.85 64.07 64.48 64.70 64.53 64.31 63.86 63.15 62.05 61.87 62.27 62.19 61.97 62.38 62.92 63.40 64.05 64.18 64.70 64.70 66.06 64.12 62.75
65.96 66.26 65.67 65.01 64.80 66.88 69.17 69.28 68.54 68.00 67.13 67.08 67.76 67.73 66.75 66.90 65.79 64.85 64.78 64.85 63.98 64.34 64.83 63.98 64.17 64.21 63.15 61.91 61.61 61.65 61.01 60.58 60.11 60.31 61.48 62.54 64.21 61.76 61.78 62.10 62.21 61.93 61.34
64.15 64.97 64.15 64.09 64.55 67.82 68.59 68.57 68.27 67.78 66.35 67.11 67.22 67.15 65.67 65.96 64.83 64.64 64.77 64.26 64.12 64.05 63.87 63.33 63.69 62.72 62.15 61.34 60.68 59.81 59.26 58.81 58.75 59.11 60.44 61.02 60.89 59.48 59.02 58.38 59.65 60.04 61.02
62.65 63.62 63.60 64.24 65.81 67.53 67.76 67.94 67.55 67.05 65.97 66.81 66.54 66.70 65.00 65.53 64.74 64.70 64.61 64.32 64.03 63.43 62.56 62.44 62.52 62.78 62.40 61.65 59.24 58.19 57.87 58.01 57.93 58.35 59.42 60.08 59.81 58.72 58.02 57.80 59.81 59.91 59.33
60.21 64.53 64.68 65.01 65.72 66.70 67.04 67.46 67.42 66.73 66.05 66.16 65.80 66.05 65.47 65.87 65.34 64.92 64.57 64.88 63.75 63.53 62.68 61.90 60.02 60.88 62.33 61.71 58.22 57.35 56.71 56.49 56.67 57.29 58.77 60.31 62.13 61.52 59.76 57.62 56.41 59.07 58.32
63.58 65.75 65.61 65.57 65.42 66.34 66.61 67.51 67.51 66.57 65.79 65.56 65.38 66.32 66.10 65.65 65.54 65.19 65.65 65.17 64.16 62.80 62.48 60.16 58.32 58.30 61.31 59.99 59.90 58.91 56.91 56.37 55.97 55.64 55.93 56.81 60.55 60.99 60.48 60.03 59.19 57.25 56.81
66.20 65.73 65.38 65.58 65.34 65.57 66.30 66.46 66.99 66.50 65.01 64.92 65.66 66.15 66.50 65.35 65.53 65.98 65.70 65.33 64.32 64.21 61.87 58.82 57.26 57.07 58.05 58.18 59.22 60.88 58.23 56.95 56.19 54.83 53.67 54.66 56.54 58.06 57.94 59.49 59.77 59.32 59.08
67.67 66.40 65.36 65.36 65.32 66.03 66.12 66.46 66.70 65.70 64.86 63.79 64.02 65.55 65.89 65.55 65.61 66.26 65.54 65.81 65.26 64.54 62.78 60.21 56.84 56.23 57.35 56.55 56.83 59.06 57.63 56.69 57.13 54.75 52.31 52.11 51.95 52.96 54.24 53.48 53.04 53.04 53.74
67.20 67.51 67.07 65.56 64.39 65.75 66.41 66.59 65.70 64.97 64.46 63.90 63.83 65.15 65.53 64.63 64.50 63.80 63.34 63.93 64.31 64.92 63.31 61.40 58.86 56.45 56.19 54.07 55.16 56.94 55.72 55.40 55.10 53.92 51.32 50.61 50.27 52.12 51.23 48.48 45.51 43.92 45.02
67.61 67.65 67.01 64.86 63.84 64.52 66.37 66.03 65.14 65.07 64.19 63.60 64.19 64.07 63.57 63.44 63.51 62.22 61.25 62.22 63.60 63.66 64.74 62.84 61.19 57.42 57.26 52.45 53.53 56.33 56.23 53.52 53.31 52.42 52.05 54.15 50.44 51.06 48.70 43.88 43.21 42.50 43.25
65.82 66.34 65.28 64.03 64.34 65.69 65.74 64.00 63.06 62.83 63.09 63.49 62.72 62.39 61.96 61.49 61.80 61.97 61.16 60.32 61.64 64.15 62.87 63.32 62.48 60.52 57.40 55.21 51.24 53.89 57.18 55.63 52.77 51.45 49.64 48.99 50.58 49.30 46.80 46.77 48.02 47.27 46.32
65.07 65.35 64.36 63.89 64.39 64.70 64.00 62.01 62.78 61.62 62.60 61.49 60.68 60.50 60.75 61.51 62.29 61.77 61.65 60.58 60.73 59.90 63.43 62.50 62.18 61.80 59.81 53.02 49.88 51.22 54.72 55.66 54.92 53.22 51.04 48.48 47.70 46.08 47.19 48.11 47.86 48.07 50.15
63.53 63.62 64.03 63.93 63.84 63.74 64.19 64.08 63.65 62.74 62.31 60.96 62.14 62.53 61.17 60.47 59.87 60.21 62.18 60.49 59.76 60.33 62.91 62.69 62.73 62.18 62.00 58.32 50.54 50.02 51.23 53.70 55.87 54.88 52.54 48.39 44.62 44.14 45.79 46.54 47.87 48.23 47.04
62.14 63.06 62.88 62.72 62.73 63.97 64.32 64.00 64.48 64.87 64.35 63.08 61.52 61.95 61.29 60.72 59.96 58.72 58.77 59.33 62.07 62.23 62.87 63.23 62.66 62.71 62.02 58.77 55.09 53.73 54.76 54.62 56.29 55.66 52.58 48.53 46.75 46.42 46.87 47.20 46.65 45.87 45.78
61.86 61.94 61.61 61.39 60.47 60.44 60.67 60.80 61.32 61.30 61.23 61.58 61.51 62.03 61.63 60.61 58.70 55.25 55.51 55.51 55.99 55.02 56.99 61.12 63.07 63.05 61.62 60.63 56.71 54.68 55.89 54.94 54.69 50.95 45.98 43.88 43.21 43.45 44.64 46.41 44.41 45.72 44.46
61.23 60.30 60.04 59.92 59.74 59.59 59.65 58.93 59.55 59.82 58.91 57.75 57.76 57.42 57.30 56.67 55.85 55.73 55.12 49.80 48.88 46.36 43.46 42.72 46.16 59.41 52.89 48.72 49.62 47.63 49.00 46.02 44.59 47.52 46.14 45.05 44.03 44.22 44.39 46.36 46.27 45.88 48.00

GFSMW_sfc_wetblb_060.txt.gz
Wetbulb
65.19 66.70 65.80 65.83 64.78 64.80 63.54 62.86 63.87 68.40 68.33 66.68 65.49 65.06 65.89 67.94 68.46 69.50 69.42 70.13 69.98 70.29 69.61 69.79 69.52 69.41 68.96 69.87 69.92 70.13 68.69 68.67 68.53 68.91 69.11 68.75 68.93 69.27 69.45 70.55 71.29 71.82 72.69
64.27 65.19 65.03 65.13 64.42 64.14 63.83 63.01 65.97 67.43 68.71 68.24 66.19 65.61 65.85 66.39 66.98 68.96 68.69 69.54 69.65 70.15 69.87 69.34 69.00 69.29 69.21 69.45 69.99 70.45 67.87 67.92 69.55 68.33 67.09 65.12 65.50 67.23 69.08 69.76 70.47 70.43 71.88
63.55 64.36 64.34 64.71 64.36 64.84 66.49 65.09 67.16 66.71 67.52 69.73 65.68 65.61 65.48 65.41 65.53 66.47 67.63 68.65 69.80 70.16 70.54 70.54 70.04 70.04 69.93 69.70 70.19 70.14 69.65 68.06 69.21 69.13 67.16 62.98 61.69 64.79 67.94 67.92 68.85 69.09 69.43
65.42 65.22 64.65 64.33 65.24 66.35 67.71 66.04 67.36 66.13 66.89 68.62 65.60 65.11 63.67 63.24 64.72 66.66 68.96 69.34 71.27 71.09 71.04 70.29 70.46 70.31 69.80 69.25 69.37 69.52 69.50 68.60 67.20 67.92 68.87 67.67 66.11 63.02 62.53 66.95 67.54 68.06 68.41
63.20 65.26 65.70 65.09 65.81 67.36 67.92 66.44 66.62 67.25 70.35 67.83 65.86 66.08 65.62 66.69 67.43 68.13 67.65 68.86 69.31 70.01 70.33 70.18 70.42 70.09 69.68 70.04 69.52 70.69 69.63 69.32 68.60 68.31 67.72 67.79 67.13 66.35 64.83 62.64 64.46 66.61 66.09
60.07 62.23 67.05 66.32 65.93 68.70 68.44 68.13 68.51 69.68 69.70 67.59 66.78 68.71 67.50 67.72 67.67 67.36 66.73 67.23 68.08 68.70 69.75 69.70 69.47 69.52 69.50 69.56 70.19 70.10 69.87 69.68 69.50 68.76 68.08 67.24 66.68 65.68 65.06 64.28 64.26 63.85 64.23
59.05 64.00 66.15 65.82 65.64 68.34 67.84 69.44 66.89 68.80 69.97 67.88 67.63 69.01 68.73 68.39 67.47 67.14 65.68 66.55 67.05 67.56 68.41 69.23 68.89 69.07 69.96 69.98 69.96 69.51 69.20 68.86 68.35 68.08 67.97 68.76 67.95 67.11 66.19 65.52 64.31 63.56 64.48
60.28 66.05 66.40 66.50 66.09 68.19 68.89 70.50 67.83 68.82 69.50 68.89 68.50 68.87 68.76 68.94 67.67 66.42 66.49 66.62 66.85 67.31 67.79 68.21 68.74 69.41 69.45 68.81 68.77 68.10 68.26 68.10 68.08 67.81 67.67 68.44 68.80 68.37 67.45 66.19 64.99 62.38 62.53
66.58 67.06 67.36 67.65 67.72 67.92 69.16 70.23 69.90 69.72 68.33 69.36 68.91 68.76 68.87 68.06 66.76 66.60 66.60 66.51 66.67 67.16 67.65 67.65 68.47 68.19 67.74 67.29 67.54 66.93 66.94 67.25 67.20 67.29 68.06 68.08 68.53 68.87 68.26 68.06 67.05 65.33 60.24
68.31 68.56 68.30 68.10 68.03 68.13 69.27 69.22 70.39 70.23 68.66 68.73 68.53 69.07 68.35 67.52 66.62 66.56 66.42 66.60 66.62 67.13 67.09 66.87 67.59 66.85 66.50 66.55 66.49 65.89 65.33 65.30 65.73 65.89 66.98 67.45 67.99 68.85 68.64 68.08 67.47 66.82 63.96
67.69 67.99 67.92 67.91 68.12 67.63 68.53 68.79 69.74 69.42 68.75 67.90 67.85 68.64 67.65 66.78 66.94 66.78 66.80 66.67 66.37 66.15 66.32 66.64 66.95 65.68 65.40 64.80 64.53 64.46 64.82 64.42 64.62 65.00 65.75 66.06 67.20 67.76 67.99 67.58 67.47 66.44 63.71
66.29 67.65 67.41 66.54 67.02 66.40 67.30 69.03 69.24 69.20 68.53 67.76 68.12 68.15 67.00 67.02 66.40 66.27 66.44 66.15 65.97 66.17 66.43 66.19 66.07 65.71 64.65 63.87 64.07 63.45 63.12 63.14 63.09 63.42 65.13 65.24 65.46 65.29 66.73 66.78 65.06 63.81 63.33
65.30 66.02 65.96 65.30 65.32 66.00 67.87 69.07 68.99 69.09 68.11 67.65 67.92 67.86 66.82 66.80 65.82 66.02 66.24 66.06 65.66 65.68 66.08 65.55 65.80 64.78 64.01 63.21 62.46 62.20 61.91 61.97 61.61 62.55 63.75 63.73 63.84 63.29 63.04 63.38 62.53 62.50 62.64
63.39 64.31 64.49 64.44 64.75 66.73 68.30 68.62 68.70 68.50 67.11 67.47 67.31 67.29 66.47 66.87 65.97 66.11 66.04 65.77 65.81 65.35 64.80 64.82 65.49 64.51 64.03 62.95 60.90 60.78 60.80 60.82 60.97 61.85 62.77 62.80 62.63 62.49 61.82 62.33 62.47 62.11 60.85
58.26 61.76 63.68 63.96 65.07 66.80 68.04 68.35 68.36 67.49 66.91 67.14 66.94 67.23 66.51 67.04 66.31 66.00 66.06 65.97 65.57 65.11 64.60 64.12 63.78 64.29 64.14 61.17 60.18 60.32 60.09 60.22 60.26 60.80 63.01 63.64 63.01 61.29 61.16 61.78 61.49 61.05 59.85
58.65 61.35 64.87 65.15 65.46 67.07 67.94 68.37 67.69 67.20 66.82 66.78 66.67 67.27 66.82 66.76 66.78 66.27 65.95 66.06 65.32 64.28 63.91 63.16 62.45 62.64 63.88 59.27 58.60 59.60 59.30 59.54 59.50 59.59 59.92 60.93 61.73 61.38 60.35 60.08 60.27 61.58 59.76
59.90 63.82 65.79 65.54 66.00 67.47 68.32 67.67 67.90 67.54 66.58 66.33 66.82 67.16 67.67 66.58 66.33 66.39 66.08 65.76 64.87 64.11 63.53 62.15 61.12 61.05 62.05 58.19 58.15 59.49 59.37 59.22 58.67 58.17 59.00 59.61 60.10 60.66 60.70 59.83 59.69 59.78 59.26
61.57 65.83 66.10 65.69 66.47 66.91 67.11 67.45 67.61 67.23 66.33 65.58 66.02 66.76 67.03 66.94 66.41 66.16 65.80 65.96 65.82 65.01 63.88 61.72 59.79 59.59 60.39 56.85 56.67 59.41 60.49 60.13 59.74 58.27 57.27 58.99 58.71 59.23 59.52 59.23 58.62 58.54 59.09
62.57 67.23 66.60 66.49 66.09 66.35 66.80 67.00 66.73 66.51 65.98 65.26 65.24 65.98 66.85 66.41 65.98 65.92 65.98 66.16 65.95 65.79 63.35 62.56 60.83 58.92 58.82 54.54 54.67 58.59 59.95 59.51 59.80 57.20 55.50 56.87 57.25 53.54 53.84 57.37 54.93 53.88 53.75
65.17 67.51 66.59 65.70 65.86 66.15 67.16 66.44 65.77 65.37 64.93 65.04 65.38 66.00 66.21 65.53 64.81 64.33 63.90 64.04 64.47 64.25 64.48 61.70 60.46 58.94 59.19 53.69 52.06 56.68 58.62 58.24 57.10 56.25 55.39 53.76 54.64 50.72 49.61 54.19 51.74 52.22 51.26
65.99 66.47 65.69 65.20 65.60 66.22 66.62 65.59 65.40 65.14 65.37 65.10 64.64 64.55 64.71 64.37 64.64 63.58 63.35 62.71 63.11 63.97 64.12 62.76 61.81 61.28 59.72 58.96 51.29 51.88 58.26 57.62 56.04 56.03 55.37 54.70 51.41 48.29 46.05 47.21 51.01 51.02 50.87
64.13 64.48 64.14 63.71 64.33 65.47 65.23 63.66 63.66 63.37 63.85 63.47 62.76 62.43 62.04 62.66 63.58 63.83 63.86 62.78 62.35 63.02 63.26 63.71 61.94 61.74 60.77 54.78 52.13 51.05 52.43 55.94 56.78 55.99 55.61 54.66 48.43 46.61 45.43 47.61 48.23 47.19 50.63
63.68 64.15 64.72 64.59 64.15 63.52 64.54 63.37 63.89 63.44 62.59 61.39 62.09 62.77 63.00 62.48 62.31 63.15 63.72 62.67 61.91 61.45 62.36 61.78 61.72 62.02 61.54 60.31 51.98 51.14 50.60 52.60 57.25 58.16 55.56 50.53 45.80 44.41 47.36 47.78 48.04 48.47 53.39
62.79 63.34 63.40 63.70 63.60 63.87 64.06 64.30 64.22 64.46 63.12 61.88 62.84 63.07 62.73 62.21 61.43 60.61 60.49 60.49 60.81 61.76 62.36 63.34 62.88 62.80 63.33 61.56 59.57 55.73 55.34 53.28 55.87 56.78 55.77 52.25 49.38 48.22 49.87 49.34 49.35 53.75 52.94
63.68 64.24 63.52 62.62 63.08 63.30 62.80 63.56 63.95 64.75 64.07 63.40 62.81 62.08 61.83 61.53 60.71 58.85 58.82 58.50 58.80 57.80 59.43 59.22 59.97 61.94 62.72 62.53 57.11 55.96 56.99 57.09 57.07 55.93 51.77 49.64 48.79 48.19 48.62 49.88 49.90 49.73 50.69
62.49 62.19 61.51 61.58 60.95 61.37 60.89 61.14 61.65 61.91 61.44 60.57 60.26 59.85 60.17 59.85 59.09 57.07 57.56 51.62 50.02 46.80 44.99 43.17 46.62 56.09 52.06 48.07 46.98 46.98 48.25 49.52 49.52 53.30 51.78 51.46 49.07 48.00 47.60 48.27 49.46 49.19 50.59

GFSMW_sfc_wetblb_063.txt.gz
Wetbulb
69.11 69.88 68.99 68.54 67.76 68.49 69.00 69.15 69.08 71.43 72.74 72.57 71.36 69.61 69.86 70.60 70.68 71.82 73.49 73.41 73.63 72.46 71.64 70.70 71.74 72.11 71.35 72.40 72.92 72.50 71.97 71.84 72.47 68.75 71.64 72.17 73.01 73.49 73.42 71.58 72.57 74.76 75.09
67.71 68.26 69.04 69.11 68.50 68.60 68.66 68.54 68.87 73.16 72.97 72.56 71.26 70.85 70.81 70.29 72.10 71.77 71.10 70.57 71.50 71.81 71.01 70.35 70.42 73.76 72.09 72.41 72.53 72.37 71.33 72.03 69.04 67.30 68.04 67.41 68.24 71.43 71.42 72.05 72.11 73.46 74.69
67.53 68.65 68.08 68.45 68.03 68.30 68.50 68.55 69.15 73.24 73.36 73.43 70.33 70.55 70.60 70.50 70.01 70.43 70.28 69.89 70.08 70.20 71.56 73.05 72.98 72.90 72.53 70.85 72.08 72.46 71.98 70.20 69.35 70.20 70.84 68.14 65.56 67.82 70.60 69.95 70.29 70.74 71.12
68.96 68.82 67.65 68.18 68.42 69.12 70.04 71.54 69.83 72.96 73.07 73.88 70.40 70.08 68.89 68.31 69.97 70.65 71.57 71.48 71.01 71.03 72.43 73.18 72.73 73.87 73.24 73.01 72.64 74.43 73.53 73.43 68.40 70.97 72.05 71.80 70.60 67.13 64.91 69.02 68.91 69.62 69.61
68.98 67.82 67.36 69.20 69.16 69.78 70.74 70.83 71.84 72.67 71.93 73.81 72.54 69.61 69.96 70.38 69.76 71.51 72.50 72.96 72.02 71.58 71.19 70.66 71.03 72.02 71.52 70.77 70.14 71.09 70.03 71.11 73.12 71.44 70.53 70.25 69.03 69.24 67.93 64.23 66.14 67.50 67.53
68.93 69.09 69.73 69.68 69.51 70.39 71.01 71.20 70.51 71.28 71.90 73.92 72.75 70.67 72.41 71.79 71.30 69.83 70.50 71.49 71.95 72.60 72.42 70.83 70.99 71.55 71.09 71.53 71.60 71.86 73.79 73.16 72.40 72.01 71.56 70.08 68.72 68.01 68.63 67.20 66.36 65.03 64.74
64.79 65.84 68.58 69.19 69.28 69.62 71.88 71.15 71.71 72.49 74.08 74.04 72.57 71.60 72.25 70.68 69.89 71.60 70.99 71.08 71.51 71.65 72.65 73.48 70.72 71.10 71.51 71.26 71.74 72.89 73.19 72.97 72.42 72.54 71.50 71.28 70.51 72.28 72.04 70.83 65.76 64.78 64.90
63.43 66.84 69.74 70.28 69.71 69.28 71.95 71.49 71.61 72.62 74.58 74.26 72.94 72.64 72.82 72.92 70.16 72.16 71.44 71.02 71.80 72.08 72.72 72.96 73.13 72.45 71.54 73.33 73.29 72.98 73.04 73.52 72.40 71.61 71.90 70.76 70.85 71.70 71.20 70.03 67.09 63.40 62.93
64.64 65.77 69.56 70.66 70.54 70.47 71.56 71.70 72.31 72.96 73.46 74.36 73.83 72.25 73.06 72.62 71.83 71.83 71.87 71.73 71.65 71.22 72.00 71.93 72.50 72.80 72.24 71.01 71.82 71.30 69.94 70.64 71.92 71.80 71.65 71.06 71.60 73.00 72.08 71.24 70.16 66.12 61.86
65.29 66.86 70.42 70.66 71.49 71.79 72.45 72.90 74.05 73.81 73.84 73.86 73.59 73.38 72.97 72.44 71.82 70.82 71.02 71.31 71.06 71.18 70.83 71.34 71.63 71.00 70.72 70.96 70.79 70.60 70.08 69.04 71.06 70.90 71.20 71.06 71.00 72.07 72.35 70.82 70.74 69.22 65.33
66.42 70.04 71.81 71.70 71.63 72.38 72.35 73.21 73.83 74.16 73.74 73.56 73.14 72.87 72.33 72.19 71.52 70.84 70.99 71.16 70.86 70.79 70.35 70.63 71.05 70.15 69.79 69.85 70.03 69.89 69.30 68.98 69.22 69.65 69.33 69.75 70.31 70.66 71.42 71.30 71.96 67.55 65.51
70.33 72.16 72.53 72.36 72.04 71.65 72.00 72.76 73.48 73.97 74.37 73.72 72.99 72.36 72.22 71.67 71.03 71.04 70.92 70.58 70.40 70.47 70.68 70.49 70.40 69.78 69.32 68.76 68.30 67.91 68.41 68.20 67.96 68.49 69.31 69.44 70.27 68.42 70.34 69.68 69.10 67.40 64.83
67.29 71.92 72.13 71.73 71.83 71.83 71.74 72.19 73.15 73.44 73.77 72.92 72.17 71.86 71.14 70.80 70.98 71.07 70.64 70.46 70.50 70.25 70.33 70.29 70.01 69.20 68.26 68.12 67.98 67.84 67.52 67.57 67.53 68.32 68.94 68.86 69.74 67.50 68.19 69.39 67.27 64.41 63.91
66.27 68.73 71.69 71.78 71.53 71.87 71.81 71.78 72.68 73.65 73.39 72.60 71.76 71.54 70.91 71.16 71.17 71.13 70.72 70.67 70.28 69.86 70.16 70.07 70.07 69.15 68.07 67.59 65.88 65.68 66.97 67.50 67.74 68.17 67.94 68.15 68.81 68.35 67.05 67.94 67.03 65.82 63.39
65.05 67.13 70.22 71.32 71.09 70.87 71.64 72.10 73.21 73.47 73.11 72.09 71.46 71.42 71.57 71.65 71.45 70.65 70.57 70.24 70.21 69.90 69.34 68.22 69.68 69.12 68.34 66.59 64.98 66.12 66.18 66.72 67.33 67.72 67.55 67.38 65.60 62.80 66.04 66.70 66.35 65.82 63.22
64.08 64.70 68.65 69.92 69.91 70.43 71.37 72.53 73.27 73.13 72.65 71.89 71.22 71.54 71.40 71.39 71.09 70.93 70.39 70.13 69.31 68.82 67.94 65.91 67.07 68.28 67.50 58.50 59.53 64.09 65.96 65.62 66.51 66.58 66.01 66.07 64.26 62.45 60.86 62.02 62.68 64.65 63.40
64.30 64.42 65.67 69.60 70.58 70.78 72.11 72.46 73.19 73.13 72.03 71.46 71.38 71.33 71.56 71.16 71.31 71.09 70.47 69.91 69.40 68.67 67.25 66.48 64.04 65.09 67.67 57.89 57.88 60.06 64.59 64.22 64.75 66.09 66.60 65.08 64.10 64.57 65.11 60.86 60.64 60.58 60.17
63.79 65.09 66.60 69.68 71.50 71.85 72.38 73.57 73.26 72.24 71.54 71.06 70.85 71.33 71.38 71.31 71.24 71.00 70.51 70.36 70.07 69.27 69.12 64.47 63.03 61.74 63.33 57.35 56.21 58.75 65.00 64.71 64.45 63.72 64.52 65.95 64.61 64.16 64.84 65.06 64.86 64.44 64.25
64.87 67.10 70.91 72.00 71.75 71.80 73.02 72.85 72.34 72.11 71.26 70.54 70.52 70.78 71.23 70.89 70.81 69.85 68.23 68.75 69.04 68.31 67.44 66.11 62.34 59.77 61.11 55.45 54.72 59.19 65.36 64.33 64.68 64.04 61.77 63.50 64.40 56.92 57.12 64.42 63.77 63.63 63.01
65.93 68.93 71.78 71.45 71.64 72.43 72.52 72.12 71.64 71.53 71.06 71.26 70.95 70.84 71.06 70.76 68.82 68.40 67.19 67.97 67.25 68.14 66.20 64.83 66.63 59.92 60.83 54.12 52.62 57.29 65.53 64.27 63.87 64.08 62.20 54.53 60.50 52.10 52.99 64.40 63.55 62.90 62.51
68.81 69.60 71.02 70.00 70.85 70.93 71.19 70.82 70.77 70.62 71.01 70.73 70.30 70.38 70.44 70.43 70.38 69.52 68.82 68.29 68.09 67.43 67.50 65.98 65.61 61.25 59.98 59.60 52.75 51.87 64.24 63.15 62.67 62.08 61.24 61.01 51.53 48.28 47.54 51.79 62.13 61.69 60.94
66.56 67.68 66.25 65.86 66.22 66.90 69.32 69.56 69.53 69.66 70.12 69.57 69.15 68.93 68.76 68.38 68.35 68.75 67.60 67.17 67.35 66.31 65.63 65.54 64.44 64.32 63.35 55.98 51.78 52.00 52.96 58.15 60.81 60.45 60.81 61.15 49.42 46.62 45.22 47.92 49.51 47.43 53.08
66.80 67.83 65.87 63.40 62.10 62.36 65.04 65.06 65.06 67.05 67.26 67.19 66.07 65.29 65.52 65.45 65.48 65.61 65.11 64.90 66.20 65.69 64.94 63.30 64.81 65.35 65.06 64.34 52.00 49.63 51.41 54.20 58.39 61.74 60.13 54.00 46.62 45.40 47.01 46.72 47.73 47.51 54.44
66.81 65.44 62.83 60.44 59.65 61.14 64.60 64.83 64.81 65.48 65.29 64.92 64.85 66.33 66.33 66.24 66.90 66.37 66.24 66.07 64.35 64.48 64.91 63.85 63.27 63.97 64.92 64.15 64.49 58.38 54.98 53.43 56.94 58.51 60.45 57.98 54.42 51.67 54.71 54.41 51.72 56.21 57.51
66.48 65.18 63.57 62.49 62.34 64.93 65.00 65.20 65.38 66.27 65.50 65.02 65.56 65.97 65.74 65.47 65.54 65.27 64.42 63.95 64.47 61.66 63.05 63.06 62.63 61.54 63.25 63.86 56.53 58.64 60.96 59.84 58.04 58.71 61.33 58.99 58.11 57.35 55.99 56.43 56.87 57.87 58.81
65.78 64.33 63.72 64.17 64.36 64.92 65.51 65.61 66.09 66.25 66.41 65.29 65.35 64.83 64.80 64.56 64.30 63.64 63.83 52.44 51.99 47.46 45.29 44.38 50.59 60.18 52.77 46.56 43.29 44.38 45.11 46.92 49.28 57.15 57.42 57.22 57.61 56.96 55.85 54.52 55.41 55.61 54.28

GFSMW_sfc_wetblb_069.txt.gz
Wetbulb
74.35 75.79 75.83 75.37 74.56 74.31 74.76 75.71 74.61 75.32 74.96 74.46 73.38 72.82 71.69 73.94 73.82 74.41 75.61 75.41 76.00 74.21 73.85 73.56 76.37 74.62 72.89 74.36 75.40 75.64 74.34 72.25 73.22 73.45 71.68 72.45 73.48 73.13 74.02 75.17 75.66 76.01 76.24
73.17 74.69 74.96 73.90 73.79 73.89 74.32 74.86 74.69 75.07 76.34 75.47 74.84 73.35 73.52 74.25 74.39 75.43 75.30 75.37 75.08 75.32 75.12 74.22 72.40 73.57 72.74 73.57 72.86 72.18 72.02 72.30 74.16 72.06 72.88 66.77 69.81 71.76 73.90 76.54 75.32 75.26 76.48
72.19 74.04 74.50 73.77 73.83 73.93 73.78 74.43 74.81 76.12 76.63 76.62 74.53 74.27 74.23 73.68 72.70 73.67 73.91 73.93 74.71 74.75 74.84 72.96 72.63 72.83 72.02 70.82 71.98 73.50 74.05 73.28 75.80 74.96 71.20 66.27 66.09 67.12 74.11 73.86 73.29 72.87 73.03
72.66 74.39 74.55 74.25 73.93 74.04 74.48 74.66 74.72 76.24 76.62 76.59 74.76 74.25 73.00 72.24 74.22 73.32 73.66 73.67 73.74 73.62 74.17 74.61 73.38 71.63 71.50 72.93 70.84 74.82 75.51 75.15 72.83 74.00 72.42 71.82 70.50 65.01 64.47 70.85 72.43 73.35 72.48
72.31 73.48 74.42 75.04 75.14 74.60 74.35 73.97 74.58 75.24 76.81 76.36 75.73 73.48 73.59 73.93 73.03 72.73 74.09 74.11 73.99 73.25 72.15 70.84 72.61 71.58 73.68 75.25 74.79 75.10 75.19 75.61 73.77 73.60 70.64 70.33 69.34 68.73 67.52 65.12 69.48 70.13 69.88
72.34 73.85 75.62 75.62 74.77 74.87 74.67 74.53 74.60 75.10 76.65 76.26 75.59 75.07 73.83 73.08 72.36 72.98 72.37 73.68 73.43 73.76 72.77 71.03 71.72 71.55 72.16 73.45 72.85 74.30 74.03 74.15 73.75 71.51 69.48 69.28 71.18 70.36 69.64 69.31 69.58 68.10 65.74
72.19 73.29 74.64 73.22 73.97 74.12 74.47 74.80 74.76 74.63 75.68 75.16 75.47 75.29 74.24 73.36 72.23 71.50 71.87 74.17 72.40 73.00 73.58 73.98 73.44 72.06 72.79 71.60 72.21 73.37 73.04 73.01 73.06 73.28 72.51 72.26 72.53 73.80 72.84 72.22 70.52 67.14 65.75
72.14 73.20 74.19 73.62 73.12 74.25 74.79 75.07 74.67 74.65 75.14 74.93 76.37 75.52 75.18 73.26 71.61 73.39 73.59 71.91 71.43 72.55 74.66 74.21 74.42 74.17 73.72 72.57 72.04 73.97 74.02 74.33 74.36 73.58 74.00 74.15 75.57 75.64 74.71 73.09 70.79 64.75 64.15
71.32 72.61 70.36 72.75 74.49 74.38 75.28 75.47 75.13 75.44 75.85 75.86 76.50 75.92 75.35 74.46 73.09 74.75 75.12 72.54 73.96 73.07 73.21 73.41 73.37 73.80 74.04 73.83 73.33 71.74 70.71 71.26 71.97 71.77 72.52 72.32 73.48 72.58 75.87 73.60 72.17 69.00 62.52
68.42 68.58 69.70 72.78 74.61 74.75 75.32 75.60 75.48 75.50 75.92 76.20 76.28 75.67 75.10 75.11 75.10 74.97 73.97 73.30 73.70 73.51 72.96 72.37 72.62 73.27 73.41 73.22 73.71 74.35 72.55 71.91 72.43 72.52 72.99 73.09 72.61 74.12 75.83 74.54 73.39 71.45 70.23
69.30 70.61 70.32 73.99 74.80 74.61 74.67 74.60 74.90 75.64 75.67 76.07 76.39 75.63 74.71 74.79 74.66 74.16 73.50 73.38 73.44 73.24 72.67 72.25 73.52 73.11 72.47 72.69 72.55 72.56 72.00 71.24 71.69 72.29 71.82 72.26 73.20 72.63 74.28 75.22 71.12 72.64 72.49
70.87 69.58 69.10 73.42 73.46 73.80 74.10 74.36 75.31 75.97 75.96 76.38 76.23 75.86 75.23 74.95 74.24 74.07 73.39 74.03 72.92 73.17 72.70 72.10 71.66 72.54 71.94 71.56 71.43 70.55 70.51 70.27 69.59 70.14 70.66 70.90 71.50 72.26 73.75 73.97 72.32 72.45 72.99
69.01 70.39 72.22 73.14 73.44 73.66 73.68 74.42 75.30 75.26 76.04 76.23 75.95 74.65 74.43 74.43 74.64 73.81 73.65 73.53 73.12 72.59 72.43 72.03 71.59 72.18 72.37 70.52 70.70 70.59 70.25 70.10 70.14 69.93 70.42 70.29 70.79 71.29 72.20 72.47 72.64 72.13 71.68
69.91 72.58 73.48 74.06 74.14 74.06 73.92 74.31 74.79 75.27 75.42 75.70 75.12 74.30 74.46 74.43 74.15 74.02 73.61 72.97 73.21 72.83 72.63 72.35 72.18 71.38 70.96 70.54 70.29 69.05 69.12 69.95 70.05 69.96 70.16 69.96 69.86 70.52 70.95 71.24 71.61 71.18 68.56
70.17 73.06 73.68 74.48 75.02 74.54 74.52 74.75 74.93 75.45 75.38 75.44 75.08 74.28 74.93 74.85 74.38 73.58 73.24 73.20 72.94 72.83 73.25 72.17 72.14 71.66 70.81 68.97 70.17 69.09 68.87 69.62 69.66 70.01 70.11 70.14 66.58 65.11 66.53 68.99 71.08 69.01 66.77
70.42 71.19 72.45 74.64 75.30 75.24 74.80 74.97 75.05 75.79 75.83 75.36 74.79 74.68 74.81 74.86 73.95 73.60 73.19 73.14 73.65 73.14 73.07 71.55 71.33 70.81 70.95 60.25 63.31 64.20 69.21 69.12 69.25 69.21 69.27 69.59 65.77 64.39 63.39 64.45 63.49 68.17 67.45
68.01 70.86 71.69 72.21 74.78 76.10 76.24 75.04 75.63 76.71 76.06 75.71 75.29 74.57 74.81 74.12 74.53 74.05 72.88 73.28 73.61 73.57 73.32 72.52 71.47 70.55 70.10 58.83 58.94 61.47 64.15 68.36 68.39 68.83 68.89 68.21 66.86 66.87 67.85 62.80 62.59 63.10 62.99
71.00 70.23 70.38 72.44 72.82 74.97 76.67 76.71 76.14 77.14 76.18 75.73 74.85 74.55 74.48 73.68 73.91 74.24 73.39 73.44 73.64 72.55 72.61 72.05 71.59 70.88 69.38 58.49 56.67 58.88 62.50 67.42 68.05 67.53 68.29 68.81 68.37 67.73 67.13 68.10 67.50 66.78 66.94
71.80 72.59 70.90 71.47 73.11 72.72 75.80 76.36 76.15 75.58 75.19 75.11 74.45 74.31 74.14 73.78 73.25 73.27 74.40 74.18 73.08 72.16 72.10 71.85 70.90 70.52 69.26 56.95 55.51 57.29 62.43 65.68 67.82 67.59 67.46 67.40 67.76 60.59 60.59 67.50 67.18 66.64 66.43
71.50 72.54 72.73 73.31 72.33 73.05 75.81 76.70 75.34 74.52 74.34 74.98 74.27 74.33 74.25 73.85 73.55 73.88 74.34 74.04 72.57 71.83 71.25 71.31 70.34 65.86 68.57 54.85 54.01 55.85 61.83 64.36 66.96 68.54 68.14 59.02 59.83 57.22 56.90 66.24 66.53 65.24 66.29
70.55 71.29 73.95 73.22 75.37 75.35 77.02 75.63 75.07 74.66 75.60 75.25 74.78 74.53 74.41 74.24 74.05 74.68 74.05 72.63 72.03 71.49 71.28 69.84 70.37 69.56 68.12 65.75 52.50 52.13 60.66 63.82 64.36 65.11 66.03 65.76 54.70 53.49 53.39 53.08 66.25 64.07 63.40
68.21 70.14 70.39 72.43 75.11 75.84 76.14 75.90 74.97 75.67 75.96 75.36 74.42 73.87 74.02 73.04 73.21 73.49 73.21 72.12 71.56 70.44 69.37 69.17 68.83 68.91 69.93 59.56 53.28 51.63 52.43 59.44 63.79 64.91 65.81 62.86 50.89 50.01 50.05 53.60 53.95 52.37 56.16
67.76 69.14 69.50 70.11 72.38 74.49 74.95 73.75 75.19 75.52 75.26 74.66 73.83 73.72 73.52 73.09 72.67 71.65 70.41 68.71 69.22 68.65 68.97 67.54 67.22 68.32 68.05 68.48 53.42 51.21 51.23 52.91 60.41 63.29 57.09 54.19 47.94 47.59 49.37 48.68 49.41 48.86 59.23
66.13 67.89 68.82 69.62 71.07 72.66 73.24 72.40 70.91 68.40 71.83 68.22 68.13 69.31 69.98 70.07 70.17 70.36 69.44 68.43 68.65 68.22 67.15 66.77 66.99 69.22 69.47 69.32 68.51 65.45 63.48 55.89 59.52 60.82 63.20 61.21 57.55 55.83 57.82 56.88 52.14 55.32 58.07
66.74 67.69 67.61 69.14 70.29 71.17 70.55 70.95 68.97 70.36 68.60 69.06 67.47 68.51 69.09 68.70 68.10 69.41 68.51 68.95 68.16 65.15 67.04 67.18 67.04 65.73 65.41 63.77 53.94 54.72 62.22 61.78 60.23 60.02 65.80 64.54 64.16 63.06 62.31 61.95 60.96 57.80 58.63
63.11 64.53 66.28 68.27 69.44 69.72 69.75 70.16 70.77 69.93 68.81 67.05 67.73 67.42 67.97 68.13 68.62 68.20 66.44 53.50 53.42 50.91 48.93 46.76 54.15 62.63 50.82 45.85 44.76 43.29 42.73 43.11 44.56 57.57 59.70 60.12 61.37 62.68 63.50 62.88 62.91 62.81 60.85

GFSMW_sfc_wetblb_072.txt.gz
Wetbulb
73.59 75.04 75.63 76.62 76.43 75.70 76.51 75.82 75.54 75.72 74.56 74.30 73.92 73.98 73.10 73.58 74.74 75.74 75.51 74.81 73.46 74.51 74.31 73.61 74.94 74.14 72.11 70.89 73.83 74.06 71.59 72.89 74.11 69.70 70.68 71.73 71.95 73.35 72.80 72.91 74.27 72.99 74.17
73.41 74.62 75.45 75.64 74.81 74.57 75.45 75.99 75.52 75.74 75.54 75.65 75.61 76.46 76.15 75.39 76.38 77.28 75.84 75.88 74.24 72.89 73.38 73.43 72.78 74.47 73.73 73.82 73.07 72.78 72.04 72.69 71.91 70.84 70.36 67.56 69.63 71.58 72.39 73.69 73.18 73.15 73.73
73.02 74.27 74.43 74.13 74.13 74.13 74.98 75.34 75.46 75.45 76.22 76.68 75.47 75.89 75.71 75.43 74.20 74.72 75.20 75.31 74.74 73.95 72.51 72.55 73.71 73.49 73.05 71.37 72.18 72.25 72.09 69.78 70.45 73.03 69.59 66.18 64.23 68.91 71.91 70.56 71.51 72.18 72.62
74.05 74.90 74.33 73.69 73.94 74.44 74.97 75.75 75.69 75.69 77.18 77.75 74.94 74.43 73.81 72.36 74.10 74.64 74.60 74.81 74.45 74.36 73.30 72.70 72.93 73.12 72.57 71.06 70.40 70.15 69.78 70.10 68.62 71.56 71.38 71.54 70.60 65.66 63.56 68.13 67.59 71.21 71.56
72.59 74.24 74.95 74.59 74.69 74.99 74.57 74.82 75.58 76.47 77.76 77.70 77.28 75.21 74.91 73.94 73.97 74.04 74.54 75.95 75.01 74.21 73.42 72.63 73.06 72.60 72.61 71.86 71.55 71.26 71.66 70.98 70.76 70.17 70.50 70.39 70.28 69.04 65.98 63.03 65.60 68.47 68.45
72.43 74.69 75.71 76.09 75.36 75.08 74.82 74.41 75.12 75.59 77.50 77.08 76.41 76.61 75.46 75.53 74.41 73.48 72.98 73.23 74.08 73.29 73.19 72.37 72.10 71.25 70.60 69.16 70.57 71.21 70.54 70.95 71.60 71.65 68.99 67.45 67.00 66.48 65.96 65.54 66.78 66.76 65.61
72.13 73.81 74.98 75.17 75.36 74.21 74.61 74.60 74.70 74.55 76.48 76.30 74.67 75.92 75.92 76.06 74.48 73.20 72.20 73.40 72.28 74.09 72.64 72.14 71.52 71.12 71.36 72.00 70.64 71.62 70.91 71.16 71.16 70.25 69.18 68.82 67.87 68.96 69.57 67.97 67.57 66.33 65.38
72.09 73.50 74.47 74.41 74.06 74.06 74.78 75.13 75.27 75.14 75.58 75.74 76.34 76.96 76.59 74.22 73.75 73.59 74.61 73.03 71.46 72.58 73.44 73.55 74.23 73.48 73.14 72.68 73.06 71.93 70.99 71.21 71.03 71.72 71.53 71.12 72.59 72.44 70.91 69.38 67.61 64.97 63.79
71.36 72.77 74.43 74.15 73.77 74.15 74.85 75.37 75.09 75.75 75.67 75.54 76.55 76.33 76.17 75.77 74.45 75.50 76.22 74.10 74.14 72.82 73.43 73.48 72.92 73.02 74.06 72.39 72.45 71.57 70.63 69.97 70.16 70.10 69.88 70.70 71.55 71.96 70.85 70.02 69.66 66.06 61.40
70.85 72.30 72.37 72.09 73.37 74.61 75.54 76.12 75.89 75.70 75.91 76.08 75.27 76.00 75.80 75.45 75.29 75.98 74.91 74.98 74.96 74.27 74.53 74.03 73.93 73.22 73.64 73.01 72.54 72.03 71.79 70.74 70.40 70.27 70.00 70.14 71.10 72.00 72.84 72.18 71.17 69.43 66.85
69.58 70.60 69.63 72.57 73.56 73.73 74.51 75.29 75.32 75.84 76.12 76.59 75.30 75.70 75.03 75.14 75.57 75.28 74.72 74.88 75.68 75.09 74.97 72.80 74.26 73.63 72.91 72.67 72.43 71.90 71.48 70.16 70.69 71.22 70.25 70.39 71.64 70.90 72.57 72.29 71.14 69.70 68.24
68.82 69.77 70.41 71.94 73.03 73.04 74.11 74.81 75.16 75.57 76.06 76.25 75.80 74.78 74.75 75.08 74.89 74.89 74.67 75.57 74.80 75.03 74.35 73.81 72.45 73.41 72.89 72.79 70.40 69.86 71.06 69.74 69.64 68.76 70.26 69.98 71.33 70.96 71.09 70.22 69.70 69.48 68.71
70.88 70.43 69.76 73.09 73.05 73.58 74.12 74.43 75.01 75.54 75.78 76.11 74.84 73.97 73.42 74.59 74.17 74.36 74.43 74.62 74.12 73.59 73.19 73.73 73.10 71.84 72.05 70.76 71.00 71.03 70.20 70.41 70.31 68.92 68.55 70.03 70.23 69.69 70.61 70.55 70.29 69.68 67.11
71.09 70.73 73.07 74.40 75.72 75.35 74.22 74.08 74.69 75.09 75.55 75.21 75.19 74.67 74.15 74.02 73.87 74.24 74.44 73.78 74.03 73.53 71.08 71.61 71.46 71.02 71.71 71.95 71.43 70.26 69.64 70.05 69.88 69.00 69.25 70.03 70.06 69.95 70.57 70.71 69.93 68.58 67.00
69.79 73.03 74.13 75.26 76.02 75.64 75.01 74.67 74.97 75.14 75.80 75.48 74.81 75.01 74.24 74.57 73.31 73.86 74.39 73.94 73.45 72.52 72.39 71.27 71.14 71.35 70.13 66.66 69.00 70.03 69.28 69.24 69.26 68.70 69.61 68.07 66.56 65.49 65.49 68.20 69.42 68.46 65.51
69.80 72.30 74.89 75.23 75.45 75.61 74.92 75.10 75.15 75.60 76.38 75.45 75.07 75.84 75.59 73.50 72.54 72.84 73.92 73.89 73.54 74.07 74.11 72.83 70.57 71.43 72.00 61.36 64.37 65.24 66.09 67.81 68.39 66.65 68.15 67.00 65.04 64.07 64.47 65.16 63.96 68.29 66.08
69.00 70.76 72.39 74.41 77.08 76.40 76.11 75.42 75.74 77.07 76.62 75.77 75.02 75.26 75.27 74.78 74.18 73.84 73.80 73.22 73.11 73.97 73.48 73.01 71.26 70.40 71.14 59.81 59.43 61.60 63.35 64.05 66.46 67.09 68.23 67.58 67.14 67.40 65.87 63.08 63.71 63.76 63.74
70.45 71.31 70.63 72.66 75.89 76.36 77.01 76.94 76.62 76.57 76.46 75.89 74.59 74.90 74.76 73.60 73.33 73.10 73.17 73.61 73.99 73.66 73.16 72.72 72.47 71.55 65.60 58.35 58.48 58.87 63.64 61.52 65.30 66.01 68.17 67.55 67.55 65.76 67.59 66.88 66.42 66.04 65.93
70.73 72.35 72.85 72.45 74.07 74.70 76.78 76.78 75.63 74.50 74.65 75.45 75.09 73.98 74.80 73.61 73.13 72.91 73.14 73.61 73.98 72.99 72.51 72.84 72.17 72.17 67.18 58.04 56.88 59.89 62.87 61.41 63.66 64.85 64.62 66.43 66.52 61.10 61.01 66.02 66.15 65.69 63.83
70.48 70.49 72.55 73.71 74.73 77.06 76.47 74.62 75.37 74.45 73.82 75.11 73.99 74.19 74.67 74.06 73.25 73.38 73.59 74.17 73.46 72.30 71.74 71.80 72.05 67.39 69.15 55.59 54.61 59.23 62.99 63.32 63.16 64.19 65.57 60.49 62.66 56.90 57.83 63.13 64.76 64.31 65.24
68.72 70.03 70.31 71.78 74.30 75.37 76.27 75.77 75.72 73.61 75.98 75.47 73.43 72.70 73.94 74.22 73.89 73.74 74.05 73.36 72.62 71.90 72.17 70.94 71.41 70.90 69.20 61.99 52.99 53.01 63.96 63.83 64.23 63.34 62.67 64.27 55.93 54.61 53.44 53.47 63.94 59.92 58.57
67.12 68.56 69.59 70.90 72.52 73.76 74.49 73.34 72.39 73.32 73.96 73.07 72.37 70.91 73.28 73.38 73.13 73.21 72.79 72.78 72.01 71.56 70.51 70.44 69.81 69.60 69.37 59.57 52.49 51.52 53.84 60.04 64.78 65.67 62.19 59.58 51.48 52.08 52.42 54.95 54.60 52.85 55.57
65.77 67.51 67.42 68.68 71.48 73.40 74.07 73.27 69.81 66.22 65.83 60.42 59.99 69.71 71.63 73.01 73.56 72.98 71.85 71.40 71.59 69.91 69.12 68.24 67.31 69.34 69.74 65.89 53.14 50.64 51.36 53.12 60.61 64.52 60.14 55.72 49.75 49.23 50.18 50.97 51.07 49.94 59.17
64.86 65.86 66.75 67.95 68.92 71.80 72.74 71.39 67.48 67.97 62.44 59.84 59.67 68.24 69.49 71.16 72.16 70.01 71.31 69.67 68.32 68.30 69.59 68.72 66.77 68.30 69.67 69.09 64.54 62.69 59.45 54.36 58.54 61.12 61.52 59.69 56.34 54.68 57.35 56.95 53.36 55.95 57.62
61.67 61.46 62.12 63.78 66.56 68.43 71.67 70.22 70.38 68.06 63.78 64.80 65.98 67.43 68.80 68.08 68.12 69.71 69.64 69.41 61.55 66.04 68.28 68.76 67.31 66.66 63.45 59.83 53.56 60.05 63.05 60.98 54.98 58.99 65.93 65.22 62.41 62.32 62.10 61.42 61.11 56.41 56.39
60.24 59.63 59.53 59.53 60.81 64.47 64.82 66.14 69.94 70.01 68.10 67.32 66.56 67.00 67.47 67.45 67.97 67.79 65.27 57.08 56.46 50.68 47.12 46.49 58.42 57.02 50.90 44.86 44.15 44.33 44.33 44.51 45.96 60.86 61.61 60.70 60.99 60.42 60.86 61.16 61.39 61.36 58.98

GFSMW_sfc_wetblb_075.txt.gz
Wetbulb
71.66 72.97 74.02 74.76 73.69 73.23 72.17 70.64 71.51 71.74 71.91 71.24 70.54 70.65 70.22 71.10 71.91 71.91 72.72 72.28 71.76 72.56 72.05 70.56 70.18 70.09 68.80 67.94 68.84 69.88 69.27 68.64 68.98 66.76 66.92 68.46 70.59 68.40 70.13 69.77 70.38 70.68 72.90
70.67 72.04 73.00 73.54 72.86 72.35 72.18 71.01 72.07 70.93 70.06 70.84 71.41 71.20 70.81 70.88 71.02 72.35 72.27 72.51 72.39 71.90 72.23 71.52 70.40 71.62 70.33 69.24 69.15 69.14 67.99 68.87 69.12 65.46 65.10 63.40 64.19 67.81 69.58 70.05 70.17 69.98 72.19
69.85 71.14 72.13 71.39 71.25 71.63 72.50 71.68 72.18 71.43 71.12 72.67 72.19 70.56 70.19 70.16 70.09 69.99 71.27 72.22 72.43 71.92 71.92 72.08 71.01 71.16 71.27 69.69 69.29 68.46 67.90 65.86 67.30 68.28 65.22 61.42 59.69 63.29 67.52 66.78 66.06 69.24 70.88
71.07 71.44 71.00 70.18 70.63 71.33 73.02 72.21 72.41 71.80 71.85 73.15 69.85 69.10 67.99 67.05 69.27 69.72 71.19 71.08 72.06 71.40 71.13 71.56 71.49 70.68 70.18 68.87 68.89 69.78 68.49 67.66 65.88 66.98 69.16 67.50 66.23 61.14 59.99 64.96 64.73 69.14 69.26
71.11 70.63 70.28 70.54 71.49 72.12 72.33 72.60 72.18 71.46 72.75 72.84 70.86 69.72 68.69 68.62 69.19 69.90 70.17 70.65 70.31 70.70 71.33 70.08 70.72 70.97 70.91 69.89 70.08 69.34 68.47 67.79 66.53 66.37 67.43 67.86 67.52 66.20 62.37 60.04 62.56 67.34 66.73
71.49 71.11 71.16 71.54 71.33 72.04 72.37 72.38 71.82 71.62 73.44 73.01 71.23 70.70 68.78 68.28 68.53 68.33 68.49 69.73 70.13 70.01 70.17 69.31 68.91 70.13 70.56 69.73 69.16 69.43 69.18 68.98 68.87 68.78 68.02 66.39 64.90 64.20 64.29 63.45 63.83 64.30 64.82
71.38 70.94 70.35 70.38 70.98 71.07 71.24 71.65 71.41 70.28 72.40 72.72 71.59 70.99 69.97 69.49 67.95 68.27 67.77 68.30 68.13 69.08 69.46 69.54 67.93 67.25 66.92 67.61 68.80 69.09 69.63 68.82 68.04 67.90 67.90 68.08 67.34 67.52 66.24 65.81 64.35 63.83 64.73
71.43 71.42 71.42 71.29 71.49 71.30 70.97 71.40 70.89 69.99 72.03 72.33 71.60 71.14 70.90 70.26 69.95 68.38 68.57 69.37 68.41 68.97 70.77 70.13 68.90 68.84 68.33 69.79 69.52 68.74 69.62 69.86 69.26 69.57 68.15 68.26 68.60 68.45 66.60 65.79 64.54 63.17 62.97
70.73 71.53 72.28 72.17 71.43 70.89 71.11 71.41 70.96 70.89 71.29 71.79 71.37 71.94 71.33 71.00 69.49 69.74 70.33 70.04 69.08 70.12 70.85 70.95 71.13 70.65 70.92 70.66 69.79 68.54 68.04 67.68 67.97 68.37 68.53 68.51 68.94 69.71 69.01 68.33 67.16 64.92 60.93
70.93 71.57 71.71 71.60 71.36 71.05 71.28 72.34 72.60 72.07 71.81 71.86 72.44 72.49 72.40 71.64 70.44 70.50 69.13 69.87 69.13 69.36 69.63 69.64 70.46 69.96 69.69 69.95 69.05 68.24 68.28 67.23 66.89 68.04 68.13 68.71 69.14 69.25 68.76 68.63 67.31 67.22 63.58
69.23 71.26 71.01 70.89 71.36 71.73 71.80 72.13 72.02 72.12 71.67 71.95 72.79 72.50 72.26 71.71 71.14 71.34 71.00 69.35 68.81 68.32 67.91 67.91 68.79 68.91 68.68 68.88 68.03 67.94 67.92 67.79 67.57 68.49 68.44 68.03 68.65 68.31 67.81 67.97 67.81 67.25 66.24
68.92 69.48 68.88 70.01 71.00 71.32 71.56 72.17 72.16 72.75 72.60 72.92 72.29 72.38 72.12 71.05 71.08 70.40 69.75 69.35 68.77 68.62 68.39 67.77 68.06 68.15 68.54 68.51 68.72 67.86 67.18 67.39 66.60 66.63 66.67 66.34 69.35 66.73 66.56 67.00 66.76 66.91 66.84
65.64 65.79 68.89 69.50 70.11 70.20 71.08 71.89 72.22 72.44 72.89 72.11 72.25 71.42 71.05 70.78 70.71 70.22 70.26 69.70 69.17 68.54 68.86 67.83 67.20 67.17 67.35 67.35 68.14 66.80 65.41 66.47 65.85 67.02 66.70 66.00 66.36 65.87 66.22 66.43 66.37 66.25 65.75
65.49 64.82 66.89 68.32 69.09 69.52 70.78 71.57 72.15 72.87 72.89 72.00 71.71 70.95 70.40 70.73 70.65 70.44 69.90 69.74 68.90 68.80 68.45 68.20 68.74 68.99 67.94 67.79 67.38 67.00 64.20 64.64 65.58 66.72 65.43 66.93 66.31 65.26 65.68 66.38 65.70 64.82 64.10
66.45 67.53 68.41 68.80 70.42 69.64 70.40 71.35 71.62 72.75 72.89 72.25 71.46 71.09 70.97 70.98 70.37 69.84 69.78 69.06 68.95 69.03 69.77 69.11 68.09 67.50 66.92 64.93 66.28 66.15 63.92 63.76 65.11 65.79 66.57 65.03 64.96 65.44 64.49 65.22 66.23 66.10 62.92
68.25 69.92 71.30 70.45 70.56 70.75 70.21 71.12 71.24 71.14 72.61 72.18 72.00 71.96 71.46 71.31 70.54 69.93 69.61 69.05 68.34 68.33 67.61 66.73 66.88 66.24 66.19 61.69 62.73 63.14 63.35 63.22 64.41 63.48 64.67 63.76 64.49 63.97 64.20 64.39 65.19 65.04 62.71
69.00 67.87 67.56 68.54 71.50 71.26 70.45 70.43 71.10 71.95 72.47 72.20 72.26 72.24 71.48 70.64 69.65 69.65 70.15 68.58 67.40 67.72 67.25 67.28 67.08 66.55 63.72 59.52 59.55 61.47 60.99 61.23 63.48 64.09 64.54 64.59 66.09 63.19 62.33 63.06 63.59 64.12 64.45
68.20 68.33 68.74 69.35 67.84 69.30 72.26 71.76 73.41 72.51 72.50 72.14 71.92 71.92 72.11 69.97 70.27 69.89 69.62 68.28 68.02 68.05 68.42 67.63 67.12 66.27 62.20 58.11 57.97 59.75 59.00 60.64 63.72 63.84 64.25 63.61 63.54 63.32 63.10 61.25 62.47 63.00 64.49
67.94 67.65 68.39 69.60 71.22 72.24 73.44 72.87 72.34 73.04 72.98 72.99 72.17 72.46 72.05 71.06 69.49 68.91 68.15 68.59 68.79 68.62 67.95 67.92 67.57 66.29 61.06 57.10 56.63 58.42 58.72 59.65 61.41 64.05 62.77 64.15 61.94 60.46 60.18 63.96 62.92 61.13 60.13
65.71 67.06 67.35 67.72 68.36 69.52 71.09 71.71 70.57 71.46 71.33 73.16 72.90 72.95 72.24 70.72 69.46 69.02 68.99 69.10 69.25 68.51 68.04 67.14 66.85 65.30 63.32 54.91 54.80 58.34 59.50 58.73 60.44 61.57 63.34 61.52 60.76 57.02 56.88 61.38 61.53 60.98 61.00
63.74 64.61 64.91 66.54 67.58 68.88 69.96 70.10 69.63 68.38 69.82 71.06 67.52 62.67 61.13 61.40 68.20 69.11 69.08 68.71 68.76 67.48 66.78 67.12 65.91 65.58 64.09 59.47 52.09 53.38 60.07 59.43 60.31 60.63 59.53 62.25 56.07 54.81 53.95 56.47 60.72 58.15 56.30
62.78 63.02 63.00 64.14 66.31 68.18 69.22 68.37 67.88 65.54 65.48 63.86 62.11 61.18 60.31 63.08 62.60 62.94 66.74 68.10 66.71 66.17 66.46 65.86 66.65 66.20 64.18 59.83 52.27 51.55 53.82 59.93 61.13 59.31 58.80 56.97 52.19 52.10 52.85 53.93 55.34 52.36 54.06
59.13 59.75 59.71 61.11 63.13 65.33 65.53 66.87 64.75 64.54 62.14 61.57 59.64 60.92 60.24 62.56 61.79 61.06 62.06 66.89 67.36 66.46 65.36 65.07 64.33 64.52 63.74 59.12 53.92 51.55 50.93 53.36 59.18 60.77 58.35 52.00 50.00 50.47 50.94 51.95 51.91 50.21 53.21
57.91 58.64 59.45 58.53 59.23 62.26 62.76 68.04 65.59 62.56 60.08 58.08 57.86 59.61 61.39 63.81 59.37 60.79 63.86 66.80 66.12 65.40 64.61 64.82 63.53 65.26 65.21 59.42 56.46 55.96 53.75 54.85 56.10 57.36 56.66 56.18 54.81 52.99 54.63 54.87 52.28 53.17 53.17
57.37 57.23 56.60 57.46 58.06 58.81 58.85 60.57 63.82 61.75 59.44 58.72 58.32 58.99 59.84 60.74 65.55 65.46 64.42 65.28 61.29 62.33 63.99 63.53 63.66 64.21 62.90 60.26 55.41 56.90 59.74 58.31 56.36 57.73 60.77 56.86 55.86 55.62 56.08 57.53 56.84 53.87 52.63
56.87 55.84 56.10 56.34 56.46 57.88 58.10 58.58 59.80 61.89 65.02 63.41 62.21 62.21 61.68 64.72 64.65 61.38 60.08 53.54 55.55 51.95 50.96 53.34 56.82 54.17 51.22 44.86 44.70 44.88 45.06 46.33 47.78 56.74 58.49 57.26 59.01 59.88 60.18 60.18 60.50 60.32 57.57

GFSMW_sfc_wetblb_078.txt.gz
Wetbulb
69.79 71.25 71.95 73.20 72.96 72.67 71.61 71.06 70.48 70.01 70.29 69.03 68.78 68.42 69.01 69.82 70.27 71.08 71.80 71.30 71.54 71.45 71.83 70.28 70.05 69.39 67.86 68.06 68.51 68.20 68.12 67.97 68.15 65.86 65.84 66.67 68.38 68.50 68.19 69.01 69.42 70.15 71.86
69.37 70.97 71.79 72.27 72.25 71.46 70.95 70.46 70.67 70.22 70.59 69.89 69.66 70.13 69.66 69.82 70.49 70.89 71.44 71.58 71.33 71.29 70.74 70.87 70.18 69.69 68.60 67.03 66.76 68.50 66.96 66.87 67.41 64.64 64.19 62.20 63.39 66.22 68.53 67.99 69.73 69.29 70.23
68.85 70.19 70.83 70.82 71.35 70.30 69.78 70.25 70.73 70.32 70.25 70.06 70.16 69.25 68.87 68.94 69.25 69.52 70.11 71.11 72.22 71.70 71.06 70.90 70.61 70.11 69.70 68.31 67.84 67.72 66.92 66.13 66.35 67.83 64.59 61.14 59.45 61.48 65.76 64.10 66.98 68.81 68.72
69.75 70.63 70.94 70.48 71.03 71.13 70.81 70.54 70.93 69.98 69.63 70.21 69.95 67.85 65.84 64.59 67.43 68.15 69.32 70.76 71.63 71.26 70.76 71.03 70.50 70.28 70.25 68.65 68.58 69.04 68.13 66.58 64.40 66.06 67.59 65.60 63.68 60.57 59.72 64.75 62.93 67.86 67.75
69.78 70.46 70.54 70.56 71.48 72.16 71.54 71.13 71.30 70.38 70.10 70.73 70.66 68.04 66.31 67.43 67.93 68.47 68.75 69.34 69.20 70.12 70.57 69.98 70.18 70.32 70.37 69.33 69.01 68.60 67.27 67.00 66.17 65.56 65.29 65.52 65.92 64.80 63.15 61.13 61.43 65.34 64.53
69.91 71.09 71.04 70.19 69.93 71.86 72.04 71.43 71.09 70.34 70.30 71.54 69.51 68.17 67.74 66.47 66.83 67.30 67.39 68.24 68.60 68.74 69.72 69.14 69.21 70.13 70.30 69.62 69.17 68.71 68.31 68.04 68.08 67.40 66.91 66.41 65.05 64.44 63.85 62.52 62.91 63.54 64.53
69.86 69.60 69.02 69.02 69.36 70.27 71.03 71.26 70.65 69.65 70.45 71.81 70.71 69.71 68.52 67.25 66.76 66.94 66.55 67.25 68.29 67.92 68.63 68.22 67.54 67.99 68.81 68.72 68.26 68.22 68.47 68.15 66.65 67.10 67.65 67.79 67.11 67.25 65.96 64.66 63.93 63.45 64.46
69.73 68.97 69.21 69.11 69.76 70.09 70.76 70.96 70.15 69.49 70.59 71.94 70.58 69.89 69.03 68.71 67.58 67.43 66.78 66.40 67.27 67.39 69.00 68.92 67.70 67.21 66.49 66.54 67.34 66.48 67.29 68.62 68.29 67.61 67.48 67.63 67.70 67.47 66.41 65.09 63.27 62.83 62.79
69.22 69.08 69.53 69.60 70.15 69.91 70.12 70.25 69.93 69.27 69.94 71.67 70.72 69.56 69.72 69.11 68.62 67.54 66.94 68.13 68.06 68.68 69.34 69.21 67.93 67.61 67.61 67.57 68.22 67.47 67.23 67.27 67.14 68.02 68.33 68.15 68.56 69.05 68.29 67.05 65.82 63.45 60.65
69.41 69.57 69.82 69.83 70.53 70.39 70.02 70.44 70.08 69.24 69.71 70.88 70.70 70.65 69.83 69.69 69.22 68.21 67.97 67.85 68.48 68.04 68.83 69.12 69.30 69.46 69.32 69.28 68.38 67.03 66.89 66.44 65.68 65.94 65.75 65.73 68.11 68.33 68.51 67.81 67.47 67.00 63.80
69.80 70.23 70.71 71.00 70.97 70.56 70.07 70.02 69.90 69.48 69.60 70.50 70.30 70.85 70.53 70.30 69.20 68.94 68.55 68.59 67.56 67.71 67.78 67.67 68.42 69.07 68.26 68.22 67.32 66.92 67.01 66.40 65.95 66.67 67.01 66.51 66.92 67.79 67.86 68.53 67.34 66.93 64.93
70.27 70.92 71.31 71.22 70.02 69.62 70.22 70.43 70.75 70.80 70.66 70.48 71.09 70.87 71.00 70.67 69.36 69.09 69.72 68.54 67.32 67.44 66.97 66.80 67.53 67.75 67.84 67.34 66.65 66.23 67.44 66.13 65.59 66.09 66.51 65.89 67.45 65.96 65.91 66.53 66.33 66.55 65.96
65.76 63.64 68.66 69.74 69.32 69.33 70.24 70.76 71.12 71.12 71.11 70.68 70.78 70.78 70.45 69.98 69.59 69.27 69.27 67.80 67.62 66.99 67.25 66.75 66.41 66.58 67.20 66.98 67.00 66.69 65.14 65.27 65.76 65.11 64.78 65.73 65.67 64.97 65.39 65.45 65.31 65.17 65.86
65.95 66.16 64.83 67.66 69.21 69.74 69.91 71.05 71.10 71.79 71.62 71.05 71.02 70.50 70.01 70.21 70.19 69.73 69.29 68.14 67.77 67.21 66.89 66.61 66.58 66.09 66.30 66.45 66.29 65.97 63.69 63.50 64.53 65.14 64.18 65.29 65.42 64.86 64.99 65.09 65.12 64.55 63.49
61.28 64.21 65.64 66.54 68.82 68.77 69.81 71.33 71.40 70.68 71.89 71.07 70.89 70.54 70.39 69.82 69.77 69.63 68.90 68.42 67.61 67.95 67.42 67.41 68.06 67.88 67.65 65.72 66.76 65.57 62.77 62.42 62.69 64.27 66.09 65.09 65.00 65.42 64.13 64.58 65.15 64.06 62.84
65.08 64.65 64.58 65.20 63.14 66.37 68.48 70.77 71.02 70.93 71.70 71.06 70.75 70.67 70.25 69.90 69.58 68.79 68.57 68.18 67.29 67.35 67.29 67.71 67.63 64.85 65.26 60.77 62.35 64.25 63.42 63.11 63.59 62.76 63.37 62.99 64.95 63.89 63.67 64.10 65.23 64.23 62.25
63.08 61.82 64.07 63.28 64.02 60.52 63.87 69.15 69.95 71.62 71.37 71.23 71.14 70.96 70.62 69.95 69.88 69.40 68.73 67.61 66.68 66.40 66.31 65.53 65.56 65.00 64.29 59.30 59.24 61.28 61.55 62.06 62.01 63.36 63.12 62.44 63.51 62.78 62.54 62.34 63.16 63.26 62.56
65.69 66.02 64.71 64.92 67.19 68.25 70.47 71.13 71.12 70.79 70.98 71.14 71.19 71.28 71.50 69.02 68.51 67.79 66.04 67.80 66.66 66.63 65.71 65.64 65.85 65.01 63.91 57.59 57.33 59.59 58.39 60.34 63.50 63.17 63.83 63.77 62.76 61.37 61.92 61.67 61.63 62.72 64.25
63.26 64.56 65.00 67.16 66.56 67.07 69.29 70.35 69.58 70.84 71.05 71.18 71.01 71.24 69.46 63.10 63.57 63.07 62.22 63.68 65.47 66.02 66.58 66.65 66.20 65.12 63.00 55.77 55.93 58.15 58.03 58.68 62.29 63.42 63.86 63.44 62.63 60.54 59.32 62.43 60.77 59.79 59.37
61.89 62.25 63.20 64.46 64.87 65.87 67.63 68.60 67.79 66.69 66.30 67.88 70.79 67.66 65.78 64.42 61.12 58.20 60.83 61.68 60.93 60.69 67.52 67.07 66.80 63.85 62.62 54.12 54.08 57.98 58.49 57.22 58.73 59.82 61.03 60.39 59.43 56.58 57.62 62.38 60.05 58.57 59.33
58.80 59.74 60.05 60.77 62.11 64.32 64.54 66.17 65.94 64.02 64.66 65.16 64.08 63.06 65.11 64.87 61.70 60.85 61.30 60.34 60.40 60.68 66.56 66.35 65.79 65.40 63.36 58.02 52.40 53.67 59.00 58.15 58.66 59.42 60.52 60.88 55.30 52.63 53.38 55.81 60.37 59.37 58.89
58.14 59.18 58.74 59.23 60.70 62.05 62.87 62.80 64.73 63.90 63.12 61.61 60.92 61.32 62.44 64.16 62.90 61.54 61.36 58.92 60.16 60.12 65.72 65.24 65.22 65.20 63.75 57.52 51.44 51.29 55.71 58.05 59.36 58.86 58.95 58.48 52.74 50.43 50.32 53.25 52.12 50.75 53.73
57.21 57.86 57.57 57.19 59.05 59.77 60.35 60.97 64.20 63.77 60.84 58.78 58.58 58.03 60.00 62.19 62.03 60.91 60.52 59.99 59.54 63.67 65.64 65.19 64.33 63.49 63.17 60.13 52.22 50.02 51.29 54.14 59.00 59.86 57.03 51.85 49.21 50.32 51.36 52.54 51.59 50.73 53.29
56.39 56.45 55.45 56.09 56.49 58.48 59.01 59.05 60.42 63.86 58.92 57.52 56.60 57.71 58.19 58.84 58.32 60.31 59.90 59.38 60.22 60.70 64.26 64.37 63.95 63.95 63.51 60.47 57.23 55.77 53.88 54.26 56.55 56.85 56.51 54.04 52.84 52.81 53.86 53.94 52.06 52.42 52.30
55.67 55.47 54.60 54.86 55.45 57.48 57.12 57.57 58.91 60.45 61.42 57.97 56.92 58.24 58.03 61.22 59.22 59.00 58.06 59.42 62.73 64.33 64.86 65.16 64.57 63.99 63.33 61.46 55.99 55.69 57.39 57.98 55.26 55.91 57.62 55.76 54.48 54.51 54.47 55.37 56.19 53.80 51.94
54.62 54.09 53.82 54.16 55.59 56.13 56.76 57.25 57.63 58.41 58.08 61.93 62.18 60.85 62.42 61.39 62.76 60.84 58.70 51.62 49.95 51.29 51.31 52.40 59.71 59.99 54.72 51.13 50.77 46.24 46.78 46.78 47.87 58.34 59.19 58.62 58.94 58.30 59.24 59.83 60.01 59.21 57.54

GFSMW_sfc_wetblb_084.txt.gz
Wetbulb
67.29 68.44 69.99 70.84 69.53 68.86 68.17 68.14 69.30 69.40 69.13 68.36 68.29 67.73 68.18 68.66 69.26 70.16 71.34 71.27 71.07 70.63 71.69 71.00 70.61 70.93 69.63 70.07 70.07 69.58 68.79 69.35 69.62 68.59 68.49 69.09 69.55 69.86 70.89 71.21 71.27 71.92 72.78
65.21 67.27 69.44 70.73 70.27 70.00 69.83 69.74 70.02 69.38 69.13 69.31 68.38 68.59 68.75 69.42 69.59 70.22 70.59 71.31 71.28 71.13 70.89 70.99 70.37 70.64 69.18 67.87 68.81 68.81 68.23 69.08 68.54 67.08 65.91 65.25 66.22 67.85 69.48 69.99 70.66 71.09 72.06
64.82 66.34 68.67 69.95 70.74 70.44 70.52 70.44 70.60 69.67 69.26 68.95 69.13 68.61 69.20 69.04 69.06 69.67 70.12 71.01 71.62 71.49 71.07 70.50 70.68 70.17 69.67 68.48 67.53 67.89 68.27 67.12 67.64 67.60 66.52 62.64 62.86 64.33 67.46 67.04 69.00 70.51 70.81
65.75 66.73 67.91 69.22 70.45 70.76 71.34 70.87 70.54 69.69 69.26 68.97 69.17 67.93 67.37 66.96 68.32 69.31 70.19 70.88 71.58 71.12 71.37 70.95 70.95 70.37 69.79 69.11 68.34 67.87 67.82 68.18 66.85 67.50 68.29 67.35 66.58 64.24 63.51 66.97 66.57 69.28 69.52
65.77 66.34 67.51 69.44 70.81 71.46 71.14 70.90 70.19 69.57 69.84 69.01 69.37 68.31 66.94 67.62 67.73 68.65 69.14 69.53 69.82 70.78 71.12 70.52 70.77 70.53 69.97 69.87 68.84 68.59 67.41 68.34 67.17 67.22 67.15 67.10 66.99 65.63 64.22 63.26 65.14 66.19 68.95
65.87 67.20 68.54 69.67 70.55 71.35 71.11 70.48 69.68 69.33 69.42 69.35 68.90 68.54 67.60 66.68 66.46 67.46 67.96 68.36 69.15 69.55 70.24 70.16 69.71 70.26 69.81 69.44 68.88 68.79 68.11 67.43 67.23 67.69 67.93 67.64 66.06 65.20 65.07 63.45 64.17 64.63 66.38
65.45 66.86 67.86 68.72 69.76 69.72 70.07 70.06 69.59 68.88 69.10 69.33 69.42 68.63 68.34 67.60 66.95 66.92 67.64 67.48 67.98 68.75 69.49 69.91 69.12 69.54 69.49 70.05 69.15 69.08 68.41 67.71 67.01 67.19 66.78 67.19 67.48 68.38 66.96 65.84 65.39 65.13 65.59
65.73 67.13 68.40 68.86 69.44 69.66 69.45 70.01 69.37 69.01 69.01 69.05 69.24 69.33 69.15 68.55 67.67 67.61 67.98 67.96 68.11 69.39 69.77 69.84 68.74 69.12 69.39 69.82 69.56 68.86 68.97 68.99 68.81 67.82 67.34 67.68 68.20 67.91 67.26 66.04 64.96 63.54 64.15
65.67 67.24 68.69 69.34 69.58 69.94 69.66 69.75 69.26 69.25 69.10 69.34 69.19 69.10 69.35 68.41 67.64 67.79 68.04 67.96 68.09 68.81 69.39 69.62 69.09 68.44 68.67 68.97 68.16 67.73 67.37 68.20 68.54 68.27 68.34 68.38 68.14 68.43 68.18 67.32 66.67 65.27 61.03
66.13 67.75 69.06 69.34 69.96 70.48 70.68 70.39 70.02 69.25 69.21 69.63 69.99 69.76 69.57 69.05 68.71 68.24 67.82 68.13 68.12 69.16 69.56 69.22 69.11 68.26 67.61 66.90 66.48 66.92 67.35 67.22 68.00 68.25 67.66 68.29 68.99 68.09 68.99 67.52 66.94 66.35 64.75
66.43 68.27 69.02 69.30 69.66 70.17 70.09 69.80 69.58 68.45 68.70 69.77 70.15 69.97 69.81 69.62 69.42 68.78 68.70 68.37 68.19 69.02 68.69 69.22 69.13 68.46 67.85 68.46 68.02 67.89 68.13 67.46 67.44 67.10 66.41 66.41 66.72 67.62 67.71 67.95 67.41 66.57 66.03
67.21 68.13 68.48 68.53 68.45 68.89 69.36 69.35 69.64 68.89 69.11 69.82 70.13 70.21 70.41 69.93 69.43 68.91 69.11 68.99 68.63 68.82 68.57 68.62 68.90 68.92 69.15 68.98 68.54 68.07 68.71 67.48 66.90 66.90 66.61 66.47 67.81 67.71 68.05 66.37 66.33 66.28 65.76
66.86 68.04 67.83 67.86 68.14 68.37 68.53 68.31 69.38 69.24 69.47 69.45 69.80 70.44 70.19 69.84 69.55 69.29 69.36 69.22 69.05 68.15 67.97 68.23 68.22 68.31 68.56 68.70 68.53 68.17 67.71 67.67 67.38 67.36 67.08 67.36 67.25 67.17 67.22 66.86 66.54 66.30 66.67
64.03 64.11 64.85 65.72 66.81 67.28 68.18 68.52 68.85 69.52 69.67 69.71 69.30 69.41 70.08 70.40 70.19 69.70 69.56 69.60 69.12 68.24 68.09 67.86 67.78 68.12 68.30 68.65 68.34 68.18 67.54 67.49 66.83 67.06 66.72 66.71 67.33 67.85 67.45 67.04 66.99 66.26 65.59
62.64 62.46 62.98 63.46 62.85 62.53 64.90 66.60 68.52 69.83 69.94 69.08 68.90 68.54 69.36 70.41 70.00 69.46 68.92 68.54 67.96 67.71 67.64 67.50 67.80 67.45 67.41 67.17 67.76 67.17 67.29 66.27 65.57 66.12 66.83 66.51 67.04 66.03 66.39 67.17 67.21 66.52 65.00
59.67 60.55 61.86 63.16 63.67 63.82 64.26 66.16 67.15 65.36 65.56 64.57 64.46 64.10 68.45 69.40 69.15 67.57 67.46 67.55 67.69 67.66 67.48 67.17 66.76 67.01 66.88 62.74 62.62 65.89 66.49 65.94 64.98 64.97 66.25 66.81 66.40 65.52 63.64 64.32 64.82 66.41 65.23
60.88 61.40 61.64 61.98 62.16 63.72 63.62 66.10 67.32 65.99 64.50 63.34 63.16 64.33 64.48 68.00 67.53 66.95 66.72 66.97 66.45 66.61 66.90 67.21 66.79 66.68 67.12 60.89 60.09 62.29 65.85 65.06 65.07 65.63 65.81 65.36 65.64 64.26 65.75 63.38 63.51 63.54 62.65
61.30 62.27 62.44 62.76 65.43 66.23 66.54 68.09 69.64 64.72 64.08 61.98 62.02 63.74 64.56 67.49 66.02 65.53 65.99 66.45 66.38 65.58 66.08 66.57 65.79 66.92 66.90 59.98 57.86 60.57 65.62 64.45 64.50 64.56 65.30 65.59 65.23 64.46 65.27 66.43 65.90 65.03 64.63
60.42 61.43 62.56 63.47 63.00 62.05 62.97 66.43 66.97 67.22 66.07 62.65 61.70 63.59 67.98 66.40 64.97 64.64 64.50 64.85 65.44 65.44 65.80 65.03 64.07 64.57 65.63 57.90 56.16 59.38 62.77 62.31 63.58 64.41 64.76 65.10 64.83 60.26 59.29 65.19 65.49 65.09 64.87
59.23 59.33 59.92 59.98 59.59 60.28 61.29 62.74 63.84 63.69 63.36 64.51 64.99 66.07 69.15 66.22 65.10 65.16 64.91 65.58 64.58 64.02 63.40 63.50 62.24 59.66 63.72 56.38 53.99 58.38 62.34 61.40 62.46 63.62 64.32 60.18 63.75 56.22 55.53 65.01 64.31 63.14 63.11
57.87 58.60 57.97 57.12 57.93 59.91 60.68 60.43 60.66 59.81 61.71 63.99 63.16 63.60 66.22 66.11 65.75 63.65 62.35 61.08 62.42 62.38 61.17 60.87 61.10 61.53 62.14 63.60 53.06 55.12 62.63 61.99 60.91 62.75 62.67 63.87 55.42 52.07 50.98 56.32 64.47 63.12 63.15
56.32 57.75 56.76 56.82 57.54 57.62 56.93 56.82 56.66 59.02 60.70 62.93 61.46 60.82 60.69 63.33 64.17 62.95 62.43 61.72 61.09 60.30 60.96 59.95 59.85 61.07 62.44 57.77 52.48 53.29 56.54 58.96 61.71 61.97 63.03 61.67 50.74 49.18 49.53 56.40 54.40 52.43 58.29
55.80 56.42 55.82 55.51 56.14 56.56 56.29 55.26 56.14 57.48 58.60 60.78 60.95 59.29 59.01 59.23 60.04 60.91 61.25 60.73 59.84 59.15 59.65 59.47 59.75 60.64 63.96 64.43 52.77 52.77 54.97 55.52 60.98 62.58 59.42 53.84 47.66 48.08 51.92 50.07 49.83 52.82 59.65
54.30 55.48 55.27 55.07 55.23 56.22 56.44 56.92 57.12 57.16 56.62 56.88 58.88 60.37 59.03 58.17 60.58 59.45 59.96 60.60 59.25 58.83 59.53 60.49 61.69 63.22 64.45 61.05 57.91 57.38 57.73 56.38 58.97 56.14 56.56 54.77 54.55 54.25 55.18 54.63 55.02 58.11 58.13
53.99 54.41 54.28 53.97 53.63 54.45 54.83 55.86 56.58 56.70 55.84 56.00 56.52 57.86 58.79 60.32 61.17 61.26 56.92 57.57 59.97 56.66 59.89 60.69 62.27 63.45 61.53 59.84 55.45 55.79 59.17 60.40 57.75 56.20 57.38 57.72 57.70 57.62 58.16 58.99 58.38 58.03 57.19
53.65 52.80 52.88 52.85 53.34 53.94 54.47 55.48 56.10 56.70 56.00 55.70 56.40 56.34 57.16 58.39 60.50 61.33 57.08 47.25 46.18 44.02 42.59 45.54 54.75 62.21 53.34 49.53 48.62 47.72 48.44 48.08 49.35 59.05 58.77 57.80 59.43 59.21 58.92 59.33 59.39 59.23 57.65

GFSMW_sfc_wetblb_087.txt.gz
Wetbulb
71.04 71.77 72.34 73.00 72.47 71.38 70.40 69.76 69.52 71.51 71.77 71.68 71.65 71.46 70.60 71.82 72.90 74.04 75.31 75.21 75.40 75.33 74.99 73.39 75.40 74.14 74.27 74.54 73.62 73.94 73.53 74.13 74.60 73.74 73.37 74.03 74.17 74.13 74.05 74.86 74.78 75.28 76.00
69.80 70.69 71.64 72.75 72.49 71.53 71.27 70.54 70.74 72.28 71.70 71.23 71.77 71.81 71.93 72.50 72.83 73.68 74.60 75.31 74.98 75.33 74.34 74.03 74.55 74.18 72.16 71.38 69.80 70.74 70.32 73.32 75.51 72.58 71.83 67.29 69.48 71.78 72.92 73.85 73.93 74.40 75.08
68.90 70.56 70.73 72.23 72.80 72.40 72.08 71.92 72.26 72.69 72.91 73.52 72.69 72.63 73.27 73.39 72.20 72.77 73.09 74.52 75.03 75.32 75.11 74.51 74.61 74.60 73.66 72.77 73.20 72.18 69.35 67.71 71.79 73.47 72.11 67.86 64.60 68.85 71.56 72.32 72.76 73.75 74.17
69.49 70.75 71.02 71.79 72.72 73.08 73.87 73.49 73.45 73.56 73.59 73.94 72.77 72.40 70.98 70.54 72.13 72.88 73.21 73.84 74.90 74.96 75.11 74.63 73.27 73.99 73.64 73.24 73.30 71.76 69.82 68.81 66.46 70.25 71.76 71.36 70.30 65.61 65.10 71.00 71.70 72.28 73.02
69.29 69.60 71.37 72.45 73.42 73.85 73.90 73.95 74.16 74.16 74.14 73.74 73.68 72.60 72.03 72.32 73.16 73.27 74.09 74.73 75.39 75.18 74.54 74.76 74.29 74.13 73.59 73.40 73.09 72.30 71.16 68.20 67.82 67.87 71.91 71.93 71.66 70.19 67.29 64.85 67.60 70.54 71.90
68.99 70.07 71.81 72.94 73.71 74.16 74.04 74.14 74.08 74.09 74.27 73.77 73.52 72.97 72.58 72.70 71.90 72.96 72.74 73.12 73.24 73.78 74.62 74.25 73.52 73.76 73.15 72.57 72.04 71.79 70.21 68.20 68.07 69.06 70.34 71.18 69.90 69.13 68.28 66.50 67.27 67.77 70.01
66.93 69.47 70.27 71.98 72.83 73.10 73.59 73.66 73.98 73.76 73.74 73.82 73.17 72.75 72.87 73.37 73.15 72.85 71.98 72.53 72.27 72.67 73.41 74.08 73.67 72.55 72.75 71.88 71.26 69.80 68.65 68.16 67.98 67.80 67.75 69.77 70.29 70.28 69.29 69.55 67.71 67.89 68.84
64.81 68.50 70.26 71.96 72.49 72.91 73.45 73.43 73.50 73.69 73.62 73.57 73.32 73.30 73.05 72.53 72.96 73.45 72.41 72.53 72.36 72.58 74.37 74.29 73.68 72.90 72.47 71.86 72.28 71.70 71.50 70.42 69.38 68.20 68.36 68.74 68.99 69.17 69.53 67.08 66.94 63.89 66.04
67.09 65.43 69.73 71.33 72.38 73.12 73.43 73.62 73.89 74.13 73.49 73.44 73.49 73.47 73.07 73.24 72.90 73.87 73.57 72.89 73.77 73.02 73.85 73.98 73.47 72.60 73.02 72.94 72.80 71.58 71.78 71.73 70.76 70.34 71.06 70.57 70.84 70.58 70.93 69.24 68.83 65.56 62.38
67.68 65.05 69.69 71.47 72.53 73.31 73.73 74.12 74.15 73.79 73.51 73.66 73.31 73.11 73.38 73.58 74.38 74.77 73.17 73.36 73.63 73.44 73.29 73.43 73.36 72.76 72.38 72.38 72.06 70.95 71.74 71.78 71.60 71.57 71.59 71.48 70.91 72.35 71.42 71.16 70.44 68.11 65.53
69.24 69.11 70.67 72.09 72.71 73.32 73.15 73.51 73.74 73.59 73.29 73.02 73.51 73.06 73.14 73.37 74.21 73.87 73.63 73.62 74.00 73.33 73.31 73.77 73.44 73.08 71.92 71.24 70.31 69.82 69.62 69.57 70.38 70.86 70.92 71.17 71.98 70.32 70.79 71.57 70.10 69.14 68.22
69.96 71.04 71.55 72.12 71.89 72.72 73.04 72.97 73.38 72.90 72.81 73.56 73.31 73.08 73.54 73.38 73.44 73.47 73.88 73.98 73.78 73.30 73.12 73.76 73.11 72.89 72.63 72.06 71.83 71.82 71.37 71.24 70.60 70.51 70.56 69.81 69.25 69.55 70.51 70.60 70.92 70.26 70.49
69.25 70.19 70.83 71.03 72.06 72.58 73.21 72.52 72.50 71.79 72.00 72.60 72.88 73.25 72.99 73.23 73.42 73.99 74.30 74.14 74.01 73.43 72.97 73.20 72.71 72.67 72.69 72.68 72.62 72.29 71.45 71.29 70.95 70.79 70.70 70.73 70.75 70.54 71.78 71.12 70.18 70.12 69.84
63.88 63.50 63.02 63.09 64.26 65.92 68.51 70.57 70.55 71.88 71.13 72.53 72.63 72.29 72.51 73.21 73.72 74.39 74.13 74.19 74.31 73.62 73.12 73.00 73.03 72.86 72.85 72.71 72.47 72.45 71.69 71.32 70.85 71.33 70.89 70.66 70.67 70.80 71.14 70.53 70.68 69.07 68.68
63.87 63.40 63.66 63.81 63.25 61.86 62.19 62.82 68.39 71.79 71.93 71.72 72.07 71.10 71.52 73.12 73.77 73.51 74.17 74.36 74.46 73.71 73.50 72.87 72.74 72.81 72.28 71.57 72.13 72.18 71.75 71.35 70.86 70.95 70.58 70.67 70.14 67.98 68.81 69.90 70.33 68.50 67.83
62.51 62.95 63.22 63.13 62.87 62.87 60.67 64.69 67.19 66.50 70.32 70.96 68.46 70.00 70.08 69.77 69.51 70.31 71.56 74.01 73.79 73.32 72.58 72.14 72.28 71.85 71.08 64.28 63.99 69.11 70.88 71.23 70.72 70.35 70.40 70.38 67.75 67.27 64.26 64.49 65.52 68.06 68.03
61.45 62.30 64.69 64.27 63.24 64.52 64.88 64.53 68.11 68.05 66.75 66.81 66.56 67.63 67.63 67.57 67.03 67.19 68.52 70.42 72.87 73.32 72.50 72.62 72.46 71.64 72.08 61.19 60.61 63.31 70.67 70.62 70.60 70.78 70.22 69.55 68.94 67.88 69.50 63.84 62.97 64.08 63.41
62.81 61.53 62.29 62.60 62.76 63.73 65.24 68.07 69.76 68.30 66.60 66.18 65.63 66.06 66.58 66.11 65.65 65.16 66.08 67.50 70.17 72.50 72.87 72.45 72.50 72.08 71.90 60.64 58.60 60.87 70.62 70.69 70.65 70.45 70.15 69.94 70.12 69.46 68.66 69.14 67.87 67.13 67.02
60.85 60.88 61.04 61.07 61.43 62.03 64.18 66.25 65.74 67.58 66.55 66.25 67.04 66.56 66.46 66.00 65.70 65.78 66.30 67.66 69.43 71.46 72.22 70.88 70.31 70.30 71.48 58.36 56.79 61.40 70.47 70.34 69.71 70.04 70.05 69.77 69.66 62.81 59.83 68.84 66.58 66.62 67.46
60.89 59.48 61.24 61.26 60.28 60.48 63.40 63.23 62.36 63.59 63.25 64.91 66.58 66.81 67.00 68.63 68.51 66.93 67.26 67.91 69.35 69.94 69.56 68.38 68.14 64.36 68.27 58.74 54.68 59.41 69.94 69.38 68.71 69.59 69.59 61.25 66.78 56.57 56.59 68.64 68.41 67.35 67.54
59.86 60.45 60.41 58.17 58.34 59.63 60.56 60.07 60.50 61.11 62.91 65.08 66.65 65.92 65.04 66.70 66.92 66.99 66.38 65.21 64.13 64.87 65.48 65.96 66.98 67.57 65.90 66.26 53.24 53.98 68.06 68.42 68.06 67.88 67.72 68.37 56.91 52.34 52.16 56.33 69.65 67.02 66.97
57.93 58.77 58.92 58.00 58.76 58.34 58.55 58.50 57.48 58.99 61.26 63.02 65.27 65.31 64.75 64.24 66.17 65.22 64.25 63.38 63.55 63.24 62.78 63.06 64.08 65.41 66.43 58.39 56.13 52.24 54.62 62.64 68.09 67.52 68.85 66.92 52.68 49.80 49.80 55.89 55.22 53.43 60.62
57.66 58.38 58.70 58.85 59.17 59.41 59.26 57.52 57.79 58.74 59.61 60.47 60.97 63.07 64.77 64.19 64.50 64.45 64.49 63.89 65.21 64.15 64.03 64.10 64.31 64.60 65.64 65.88 53.71 51.37 52.28 55.56 67.14 69.12 65.00 54.79 48.30 48.30 51.55 52.50 51.03 52.53 66.23
57.30 58.22 58.60 58.53 58.37 59.92 60.01 60.10 60.32 59.76 59.24 58.81 58.45 59.54 60.00 60.43 64.43 64.65 64.62 63.46 63.06 62.84 61.23 60.15 60.14 62.19 64.50 66.17 66.48 58.76 55.87 56.29 61.74 59.16 60.86 57.94 57.10 56.51 58.53 57.77 58.36 64.77 64.95
58.36 58.28 57.98 58.11 58.48 59.82 59.60 60.27 60.35 60.29 59.36 61.21 60.93 59.78 58.63 59.94 61.63 63.02 62.87 61.73 62.67 60.01 61.16 60.55 62.18 63.32 63.77 64.58 57.05 55.86 58.80 60.81 59.33 60.66 61.88 62.22 61.96 62.35 62.39 62.76 62.80 62.91 62.43
58.30 58.11 57.73 57.87 58.02 58.46 58.68 59.39 60.33 59.73 58.72 58.10 59.79 58.98 58.97 60.29 60.52 61.06 61.70 48.87 48.30 44.85 43.62 42.89 48.76 62.40 54.60 48.53 46.90 46.54 48.35 49.26 50.16 59.50 61.35 61.25 62.39 62.81 62.86 61.59 60.99 61.37 59.49